Home   Weather   Port-aux-Francais   Past weeks

Flag for French Southern Territories Past Weather in Port-aux-Francais, French Southern Territories — Yesterday and Last 2 Weeks

Now
31 °F

Chilly.


Feels Like: 18 °F
Forecast: 34 / 38 °F
Wind: 24 mph from Southwest

Location: Alfred Faure Iles Crozet

Current Time: Oct 1, 2016 at 8:23:38 AM

Latest Report: Oct 1, 2016 at 7:00 AM


Visibility: N/A

Pressure: 29.63 "Hg

Humidity: 70%

Dew Point: 23 °F

Location of Port-aux-FrancaisLocation

Past Weather in Port-aux-Francais — Graph

°F

Port-aux-Francais Temperature Yesterday

Maximum temperature yesterday: 39 °F (at 10:00 AM)
Minimum temperature yesterday: 33 °F (at 10:00 PM)
Average temperature yesterday: 37 °F

High & Low Weather Summary for the Past Weeks

 TemperatureHumidityPressure
High57 °F (Sep 28, 1:00 PM)100% (Sep 16, 8:00 AM)30.43 "Hg (Sep 16, 8:00 AM)
Low31 °F (Sep 26, 2:00 AM)69% (Sep 26, 2:00 PM)28.82 "Hg (Sep 25, 11:00 AM)
Average40 °F91%29.57 "Hg
* Reported Sep 16 6:00 AM — Oct 1 6:00 AM, Port-aux-Francais, Weather by CustomWeather, © 2016

Note: Actual official high and low records may vary slightly from our data, if they occured in-between our weather recording intervals... More about our weather records

Advertising

Port-aux-Francais Weather History for the Previous 24 Hours

Scroll right to see more
 ConditionsComfort  
Time TempWeatherWind HumidityBarometerVisibility
6:00 AM
Sat, Oct 1
32 °FChilly.29 mph73%29.60 "HgN/A
5:00 AM32 °FChilly.26 mph74%29.57 "HgN/A
4:00 AM33 °FChilly.22 mph83%29.54 "HgN/A
3:00 AM33 °FChilly.29 mph78%29.50 "HgN/A
2:00 AM33 °FChilly.25 mph86%29.47 "HgN/A
1:00 AM33 °FChilly.32 mph83%29.41 "HgN/A
11:00 PM
Fri, Sep 30
34 °FChilly.33 mph77%29.32 "HgN/A
10:00 PM33 °FChilly.36 mph98%29.29 "HgN/A
9:00 PM34 °FChilly.36 mph100%29.21 "HgN/A
8:00 PM36 °FChilly.33 mph85%29.18 "HgN/A
7:00 PM36 °FChilly.28 mph82%29.15 "HgN/A
6:00 PM37 °FChilly.28 mph83%29.12 "HgN/A
5:00 PM38 °FChilly.30 mph88%29.09 "HgN/A
4:00 PM38 °FChilly.28 mph99%29.09 "HgN/A
3:00 PM36 °FChilly.24 mph100%29.09 "HgN/A
2:00 PM38 °FChilly.25 mph100%29.06 "HgN/A
1:00 PM36 °FChilly.31 mph100%29.09 "HgN/A
12:00 PM38 °FChilly.30 mph100%29.12 "HgN/A
11:00 AM39 °FChilly.24 mph100%29.18 "HgN/A
10:00 AM39 °FChilly.21 mph100%29.21 "HgN/A
9:00 AM38 °FChilly.23 mph100%29.23 "HgN/A
8:00 AM39 °FChilly.23 mph100%29.29 "HgN/A
Weather by CustomWeather, © 2016

See weather overviewHow to use our weather pages